Volver al catálogo

PEGASUS DEB

ActivoPO
NORAD 39320·DEBRIS·🇺🇸 United States

Lanzado May 19, 1994 desde Vandenberg Space Force Base

Loading…

Próximos Pases (próximas 24 horas)

TLE

EnvejeciendoSource: Space-Track

Época: Sep 9, 2026, 00:49 UTC

1 39320U 94029AFF 26252.03425351  .00001734  00000-0  39818-3 0  9998
2 39320  81.7589  13.4550 0280191 115.7054 247.3348 14.33517076739275

Sigue PEGASUS DEB en tiempo real con AllMySat

Download on the App Store